This is the latest recevied weather packets stored in our database for station/object KF0WJA. If no packets are shown the sender has not sent any weather packets the latest 10 day(s).
| Time | Temp. | Humidity | Pressure | Rain* | Wind** | Luminosity | Snow |
|---|---|---|---|---|---|---|---|
| 1787592883 | 29.44° C | 61% | 1015.9 hPa | 0 mm | - | 370 W/m² | - |
| 1787592578 | 28.89° C | 62% | 1015.9 hPa | 0 mm | - | 435 W/m² | - |
| 1787592278 | 29.44° C | 61% | 1016 hPa | 0 mm | - | 324 W/m² | - |
| 1787591974 | 28.89° C | 62% | 1016.1 hPa | 0 mm | - | 239 W/m² | - |
| 1787591669 | 28.89° C | 62% | 1016.5 hPa | 0 mm | - | 274 W/m² | - |
| 1787591365 | 28.89° C | 61% | 1016.2 hPa | 0 mm | - | 365 W/m² | - |
| 1787591066 | 28.89° C | 61% | 1016 hPa | 0 mm | - | 347 W/m² | - |
| 1787590761 | 28.89° C | 61% | 1016 hPa | 0 mm | - | 356 W/m² | - |
| 1787590456 | 28.89° C | 60% | 1016.2 hPa | 0 mm | - | 448 W/m² | - |
| 1787590151 | 29.44° C | 60% | 1016.5 hPa | 0 mm | - | 402 W/m² | - |
| 1787589847 | 28.33° C | 62% | 1016.3 hPa | 0 mm | - | 388 W/m² | - |
| 1787589543 | 28.33° C | 63% | 1016.1 hPa | 0 mm | - | 416 W/m² | - |
| 1787589237 | 27.78° C | 65% | 1016.2 hPa | 0 mm | - | 365 W/m² | - |
| 1787588933 | 27.78° C | 63% | 1016.3 hPa | 0 mm | - | 402 W/m² | - |
| 1787588629 | 28.33° C | 62% | 1016.5 hPa | 0 mm | - | 355 W/m² | - |
| 1787588324 | 28.33° C | 63% | 1016.3 hPa | 0 mm | - | 453 W/m² | - |
| 1787588019 | 27.22° C | 65% | 1016.2 hPa | 0 mm | - | 790 W/m² | - |
| 1787587715 | 26.67° C | 66% | 1016.6 hPa | 0 mm | - | 356 W/m² | - |
| 1787587410 | 26.67° C | 66% | 1016.3 hPa | 0 mm | - | 272 W/m² | - |
| 1787587110 | 26.67° C | 67% | 1016.6 hPa | 0 mm | - | 222 W/m² | - |
| 1787586810 | 26.67° C | 66% | 1016.2 hPa | 0 mm | - | 189 W/m² | - |
| 1787586505 | 26.67° C | 66% | 1016.3 hPa | 0 mm | - | 180 W/m² | - |
| 1787586200 | 26.67° C | 67% | 1016.2 hPa | 0 mm | - | 210 W/m² | - |
| 1787585897 | 26.67° C | 66% | 1016.2 hPa | 0 mm | - | 242 W/m² | - |
| 1787585596 | 26.11° C | 66% | 1016.5 hPa | 0 mm | - | 229 W/m² | - |
* Rain latest hour (hover to see other rain measurements)
** Current wind speed in m/s (hover to see current wind gust speed)